Flight Track Log - Related Links

Times and Time Zones

All times are in EDT time to prevent confusion due to time zone crossing. See the N1944E flight status page for this flight to view local times or setup timezone preferences in your user account.

Time Position Orientation Groundspeed Altitude Reporting Facility
EDT Latitude Longitude Course Direction KTS MPH feet Rate Location/Type
Sat 06:14:36 PM 44.4431 -109.1339 219° Southwest 130 150 8,000  Level Salt Center
Sat 06:15:37 PM 44.4142 -109.1797 229° Southwest 130 150 9,100 976 Climbing Salt Center
Sat 06:16:39 PM 44.3925 -109.2197 233° Southwest 130 150 10,000 829 Climbing Salt Center
Sat 06:17:40 PM 44.3692 -109.2567 229° Southwest 129 148 10,800 738 Climbing Salt Center
Sat 06:18:41 PM 44.3436 -109.2914 224° Southwest 128 147 11,500 683 Climbing Salt Center
Sat 06:19:00 PM 44.3259 -109.2126 219° Southwest  Level FlightAware
Sat 06:19:43 PM 44.3133 -109.3228 217° Southwest 130 150 12,200  Level Salt Center
Sat 06:20:44 PM 44.2778 -109.3533 212° Southwest 138 159 13,000 829 Climbing Salt Center
Sat 06:21:46 PM 44.2439 -109.3856 214° Southwest 146 168 13,900 829 Climbing Salt Center
Sat 06:22:47 PM 44.2133 -109.4189 218° Southwest 143 165 14,700 829 Climbing Salt Center
Sat 06:23:49 PM 44.1758 -109.4581 217° Southwest 141 162 15,600 634 Climbing Salt Center
Sat 06:24:50 PM 44.1417 -109.4942 217° Southwest 147 169 16,000 195 Climbing Salt Center
Sat 06:25:52 PM 44.1039 -109.5350 218° Southwest 168 193 16,000  Level Salt Center
Sat 06:26:53 PM 44.0653 -109.5772 218° Southwest 180 207 16,000  Level Salt Center
Sat 06:27:54 PM 44.0222 -109.6267 220° Southwest 180 207 16,000  Level Salt Center
Sat 06:28:56 PM 43.9861 -109.6658 218° Southwest 175 201 16,000  Level Salt Center
Sat 06:29:57 PM 43.9419 -109.7125 217° Southwest 176 203 16,000  Level Salt Center
Sat 06:30:59 PM 43.9033 -109.7544 218° Southwest 182 209 16,000  Level Salt Center
Sat 06:32:00 PM 43.8647 -109.7933 216° Southwest 179 206 16,000  Level Salt Center
Sat 06:33:02 PM 43.8250 -109.8350 217° Southwest 179 206 16,000  Level Salt Center
Sat 06:34:03 PM 43.7828 -109.8703 211° Southwest 176 203 16,000  Level Salt Center
Sat 06:35:04 PM 43.7347 -109.8881 195° South 178 205 16,000  Level Salt Center
Sat 06:36:06 PM 43.7014 -109.9539 235° Southwest 175 201 16,000  Level Salt Center
Sat 06:37:07 PM 43.6647 -109.9994 222° Southwest 177 204 16,000  Level Salt Center
Sat 06:38:09 PM 43.6242 -110.0444 219° Southwest 185 213 16,000  Level Salt Center
Sat 06:39:10 PM 43.5881 -110.0908 223° Southwest 178 205 16,000  Level Salt Center
Sat 06:40:12 PM 43.5511 -110.1378 223° Southwest 180 207 16,000  Level Salt Center
Sat 06:41:13 PM 43.5119 -110.1803 218° Southwest 179 206 16,000 49 Level Salt Center
Sat 06:42:14 PM 43.4714 -110.2269 220° Southwest 180 207 16,100 49 Climbing Salt Center
Sat 06:43:16 PM 43.4331 -110.2672 217° Southwest 183 211 16,100  Level Salt Center
Sat 06:44:17 PM 43.3936 -110.3114 219° Southwest 181 208 16,100  Level Salt Center
Sat 06:45:18 PM 43.3636 -110.3664 233° Southwest 180 207 16,100  Level Salt Center
Sat 06:46:20 PM 43.3244 -110.4072 217° Southwest 177 204 16,100  Level Salt Center
Sat 06:47:21 PM 43.2792 -110.4619 221° Southwest 178 205 16,100 -443 Level Salt Center
Sat 06:48:22 PM 43.2436 -110.5197 230° Southwest 195 224 15,200 -634 Descending Salt Center
Sat 06:49:24 PM 43.2075 -110.5869 234° Southwest 215 247 14,800 -585 Descending Salt Center
Sat 06:50:25 PM 43.1758 -110.6467 234° Southwest 199 229 14,000 -787 Descending Salt Center

Login

Don't have an account? Register now (free) for customized features, flight alerts, and more!